Tracking 18951 objects as of 21-Jan-2018
HD Live streaming from Space Station
objects crossing your sky now

COSMOS 2251 DEB

Track COSMOS 2251 DEB now!
10-day predictions


NORAD ID: 37326
Int'l Code: 1993-036BKS
Perigee: 682.3 km
Apogee: 777.4 km
Inclination: 74.0 °
Period: 99.2 minutes
Semi major axis: 7100 km
RCS: 0.0127 m2 (small)
Launch date: June 16, 1993
Source: Commonwealth of Independent States (former USSR) (CIS)
Launch site: PLESETSK MISSILE AND SPACE COMPLEX (PKMTR)

Note: This is SATELLITE DEBRIS
aabbcc
Your satellite tracking list
Your tracking list is empty




NASA's NSSDC Master Catalog

Two Line Element Set (TLE):
1 37326U 93036BKS 18020.35381215 +.00000220 +00000-0 +61438-4 0  9991
2 37326 074.0285 022.7041 0066924 149.4903 211.0179 14.50904059435912
Source of the keplerian elements: AFSPC